• In Czech Republic
  • List of Countries
  • For 7 days
  • Water Temperature
  • Satellite Maps
  • Weather Map
  • Weather Widgets
  • user-avatar
    Login

    Hourly Weather Kuzminovo

    Today, 24 September, Monday

    Time Temperature Precipitation Wind Pressure Humidity
    00:00 +7°C° 0 mm 3 mps 739 mmHg 89%
    01:00 +7°C° 0 mm 3 mps 739 mmHg 91%
    02:00 +6°C° 0 mm 2 mps 739 mmHg 93%
    03:00 +6°C° 0 mm 2 mps 738 mmHg 94%
    04:00 +6°C° 0 mm 2 mps 738 mmHg 95%
    05:00 +6°C° 0 mm 2 mps 738 mmHg 96%
    06:00 +7°C° 0.1 mm 3 mps 738 mmHg 93%
    07:00 +8°C° 0.1 mm 3 mps 738 mmHg 90%
    08:00 +8°C° 0.1 mm 3 mps 738 mmHg 86%
    09:00 +9°C° 0.8 mm 3 mps 737 mmHg 87%
    10:00 +8°C° 0.8 mm 4 mps 737 mmHg 88%
    11:00 +8°C° 0.8 mm 4 mps 736 mmHg 89%
    12:00 +8°C° 1.1 mm 4 mps 735 mmHg 89%
    13:00 +8°C° 1.1 mm 5 mps 734 mmHg 89%
    14:00 +8°C° 1.1 mm 5 mps 734 mmHg 89%
    15:00 +7°C° 2.6 mm 5 mps 732 mmHg 90%
    16:00 +7°C° 2.6 mm 5 mps 731 mmHg 92%
    17:00 +6°C° 2.6 mm 5 mps 730 mmHg 94%
    18:00 +7°C° 2.5 mm 5 mps 729 mmHg 94%
    19:00 +7°C° 2.5 mm 5 mps 728 mmHg 94%
    20:00 +7°C° 2.5 mm 5 mps 728 mmHg 95%
    21:00 +7°C° 1.6 mm 5 mps 727 mmHg 94%
    22:00 +7°C° 1.6 mm 5 mps 727 mmHg 94%
    23:00 +5°C° 1.6 mm 6 mps 727 mmHg 93%

    Tomorrow, 25 September, Tuesday

    Time Temperature Precipitation Wind Pressure Humidity
    00:00 +5°C° 1.1 mm 6 mps 728 mmHg 93%
    01:00 +5°C° 1.1 mm 7 mps 728 mmHg 92%
    02:00 +5°C° 1.1 mm 7 mps 729 mmHg 92%
    03:00 +5°C° 0.6 mm 7 mps 730 mmHg 91%
    04:00 +5°C° 0.6 mm 7 mps 730 mmHg 90%
    05:00 +5°C° 0.6 mm 7 mps 731 mmHg 89%
    06:00 +5°C° 0.4 mm 7 mps 732 mmHg 88%
    07:00 +5°C° 0.4 mm 7 mps 733 mmHg 87%
    08:00 +5°C° 0.4 mm 7 mps 734 mmHg 86%
    09:00 +5°C° 0.2 mm 7 mps 735 mmHg 84%
    10:00 +5°C° 0.2 mm 7 mps 736 mmHg 82%
    11:00 +5°C° 0.2 mm 7 mps 737 mmHg 81%
    12:00 +6°C° 0.1 mm 7 mps 737 mmHg 79%
    13:00 +6°C° 0.1 mm 7 mps 738 mmHg 77%
    14:00 +6°C° 0.1 mm 7 mps 739 mmHg 75%
    15:00 +7°C° 0 mm 6 mps 739 mmHg 74%
    16:00 +5°C° 0 mm 6 mps 740 mmHg 73%
    17:00 +5°C° 0 mm 6 mps 741 mmHg 72%
    18:00 +5°C° 0 mm 5 mps 741 mmHg 74%
    19:00 +5°C° 0 mm 5 mps 742 mmHg 75%
    20:00 +3°C° 0 mm 5 mps 743 mmHg 77%
    21:00 +3°C° 0 mm 5 mps 744 mmHg 78%
    22:00 +3°C° 0 mm 5 mps 744 mmHg 80%
    23:00 +4°C° 0 mm 4 mps 745 mmHg 81%

    Day after tomorrow, 26 September, Wednesday

    Time Temperature Precipitation Wind Pressure Humidity
    00:00 +3°C° 0 mm 4 mps 746 mmHg 80%
    01:00 +1°C° 0 mm 4 mps 746 mmHg 79%
    02:00 +1°C° 0 mm 4 mps 747 mmHg 78%
    03:00 0°C° 0 mm 4 mps 748 mmHg 78%
    04:00 0°C° 0 mm 4 mps 748 mmHg 78%
    05:00 0°C° 0 mm 3 mps 749 mmHg 77%
    06:00 0°C° 0 mm 4 mps 749 mmHg 75%
    07:00 +1°C° 0 mm 4 mps 750 mmHg 73%
    08:00 +3°C° 0 mm 4 mps 750 mmHg 70%
    09:00 +4°C° 0 mm 4 mps 750 mmHg 66%
    10:00 +6°C° 0 mm 4 mps 750 mmHg 61%
    11:00 +7°C° 0 mm 4 mps 750 mmHg 57%
    12:00 +8°C° 0 mm 4 mps 749 mmHg 58%
    13:00 +8°C° 0 mm 4 mps 749 mmHg 60%
    14:00 +10°C° 0 mm 4 mps 749 mmHg 61%
    15:00 +8°C° 0 mm 4 mps 748 mmHg 64%
    16:00 +7°C° 0 mm 4 mps 747 mmHg 67%
    17:00 +7°C° 0 mm 4 mps 747 mmHg 70%
    18:00 +6°C° 0.1 mm 5 mps 746 mmHg 72%
    19:00 +5°C° 0.1 mm 6 mps 745 mmHg 73%
    20:00 +5°C° 0.1 mm 6 mps 745 mmHg 74%
    21:00 +4°C° 0.5 mm 7 mps 744 mmHg 77%
    22:00 +4°C° 0.5 mm 7 mps 742 mmHg 80%
    23:00 +4°C° 0.5 mm 8 mps 741 mmHg 82%

    27 September, Thursday

    Time Temperature Precipitation Wind Pressure Humidity
    00:00 +4°C° 1.4 mm 8 mps 740 mmHg 84%
    01:00 +4°C° 1.4 mm 8 mps 739 mmHg 86%
    02:00 +4°C° 1.4 mm 8 mps 738 mmHg 88%
    03:00 +4°C° 0.8 mm 7 mps 738 mmHg 89%
    04:00 +4°C° 0.8 mm 7 mps 737 mmHg 90%
    05:00 +5°C° 0.8 mm 6 mps 737 mmHg 91%
    06:00 +5°C° 0.2 mm 6 mps 737 mmHg 89%
    07:00 +7°C° 0.2 mm 5 mps 737 mmHg 86%
    08:00 +7°C° 0.2 mm 5 mps 738 mmHg 84%
    09:00 +8°C° 0 mm 5 mps 738 mmHg 77%
    10:00 +9°C° 0 mm 6 mps 738 mmHg 70%
    11:00 +10°C° 0 mm 6 mps 738 mmHg 62%
    12:00 +10°C° 0.1 mm 6 mps 738 mmHg 61%
    13:00 +11°C° 0.1 mm 6 mps 738 mmHg 60%
    14:00 +11°C° 0.1 mm 6 mps 738 mmHg 59%
    15:00 +10°C° 0.1 mm 5 mps 738 mmHg 64%
    16:00 +10°C° 0.1 mm 4 mps 738 mmHg 70%
    17:00 +10°C° 0.1 mm 3 mps 738 mmHg 76%
    18:00 +9°C° 0 mm 3 mps 738 mmHg 80%
    19:00 +8°C° 0 mm 3 mps 738 mmHg 84%
    20:00 +8°C° 0 mm 3 mps 738 mmHg 88%
    21:00 +8°C° 0.3 mm 3 mps 737 mmHg 90%
    22:00 +8°C° 0.3 mm 3 mps 737 mmHg 93%
    23:00 +9°C° 0.3 mm 3 mps 736 mmHg 95%

    28 September, Friday

    Time Temperature Precipitation Wind Pressure Humidity
    00:00 +9°C° 1.4 mm 3 mps 735 mmHg 95%
    01:00 +10°C° 1.4 mm 4 mps 734 mmHg 95%
    02:00 +9°C° 1.4 mm 5 mps 733 mmHg 95%
    03:00 +10°C° 1.2 mm 6 mps 732 mmHg 93%
    04:00 +10°C° 1.2 mm 7 mps 731 mmHg 91%
    05:00 +11°C° 1.2 mm 8 mps 730 mmHg 89%
    06:00 +11°C° 1 mm 8 mps 730 mmHg 88%
    07:00 +10°C° 1 mm 8 mps 731 mmHg 87%
    08:00 +10°C° 1 mm 7 mps 731 mmHg 85%
    09:00 +9°C° 0.1 mm 7 mps 732 mmHg 82%
    10:00 +9°C° 0.1 mm 7 mps 734 mmHg 79%
    11:00 +8°C° 0.1 mm 6 mps 735 mmHg 76%
    12:00 +9°C° 0.1 mm 6 mps 736 mmHg 72%
    13:00 +9°C° 0.1 mm 6 mps 737 mmHg 68%
    14:00 +10°C° 0.1 mm 6 mps 738 mmHg 64%
    15:00 +9°C° 0.1 mm 5 mps 738 mmHg 68%
    16:00 +8°C° 0.1 mm 5 mps 739 mmHg 72%
    17:00 +7°C° 0.1 mm 4 mps 739 mmHg 76%
    18:00 +6°C° 0 mm 4 mps 740 mmHg 78%
    19:00 +6°C° 0 mm 4 mps 741 mmHg 81%
    20:00 +5°C° 0 mm 3 mps 742 mmHg 83%
    21:00 +4°C° 0 mm 3 mps 742 mmHg 85%
    22:00 +4°C° 0 mm 3 mps 743 mmHg 86%
    23:00 +3°C° 0 mm 3 mps 743 mmHg 88%

    29 September, Saturday

    Time Temperature Precipitation Wind Pressure Humidity
    00:00 +3°C° 0 mm 3 mps 744 mmHg 88%
    01:00 +2°C° 0 mm 3 mps 744 mmHg 89%
    02:00 +2°C° 0 mm 3 mps 745 mmHg 90%
    03:00 +2°C° 0 mm 3 mps 745 mmHg 91%
    04:00 +1°C° 0 mm 3 mps 745 mmHg 91%
    05:00 +1°C° 0 mm 3 mps 746 mmHg 92%
    06:00 +2°C° 0 mm 3 mps 746 mmHg 88%
    07:00 +2°C° 0 mm 3 mps 747 mmHg 84%
    08:00 +3°C° 0 mm 3 mps 747 mmHg 80%
    09:00 +4°C° 0 mm 3 mps 748 mmHg 72%
    10:00 +7°C° 0 mm 3 mps 748 mmHg 65%
    11:00 +8°C° 0 mm 3 mps 749 mmHg 58%
    12:00 +8°C° 0 mm 3 mps 749 mmHg 55%
    13:00 +9°C° 0 mm 3 mps 749 mmHg 53%
    14:00 +9°C° 0 mm 3 mps 749 mmHg 51%
    15:00 +8°C° 0 mm 2 mps 749 mmHg 57%
    16:00 +7°C° 0 mm 2 mps 749 mmHg 62%
    17:00 +6°C° 0 mm 2 mps 749 mmHg 68%
    18:00 +5°C° 0 mm 2 mps 749 mmHg 69%
    19:00 +5°C° 0 mm 2 mps 750 mmHg 70%
    20:00 +3°C° 0 mm 3 mps 750 mmHg 71%
    21:00 +3°C° 0 mm 3 mps 751 mmHg 74%
    22:00 +2°C° 0 mm 3 mps 751 mmHg 78%
    23:00 +2°C° 0 mm 3 mps 752 mmHg 81%
    Show more

    3.3.7123123